Hourly Data Report for March 19, 2020

All times are specified in Local Standard Time (LST). Add 1 hour to adjust for Daylight Saving Time where and when it is observed.

OTTAWA INTL A
ONTARIO
Current Station Operator: NAVCAN

45°19'00.000" N
75°40'00.000" W
114.90 m
6106001
71628
YOW

Download Data

Hourly Data (March 2020)
Hourly Data Report for March 19, 2020
TIME Temp Definition
°C
Dew Point Definition
°C
Rel Hum Definition
%
Wind Dir Definition
10's deg

Wind Spd Definition
km/h
Visibility Definition
km
Stn Press Definition
kPa
Hmdx Definition


Wind Chill Definition


Weather Definition


00:00 -0.5 -6.2 66 6 18 24.1 101.19   -6 LegendNANA
01:00 -0.6 -6.2 66 6 18 24.1 101.20   -6 Mostly Cloudy
02:00 -0.4 -6.4 64 6 21 24.1 101.11   -6 LegendNANA
03:00 -0.4 -6.8 62 6 16 24.1 101.10   -5 LegendNANA
04:00 -0.4 -6.7 63 5 16 24.1 101.20   -5 Mostly Cloudy
05:00 -0.4 -7.6 58 6 20 24.1 101.18   -6 LegendNANA
06:00 -0.5 -7.1 61 6 16 24.1 101.13   -5 LegendNANA
07:00 -0.2 -7.3 59 6 19 24.1 101.17   -5 Cloudy
08:00 0.3 -7.1 58 6 13 24.1 101.21     LegendNANA
09:00 0.8 -6.5 58 7 14 24.1 101.27     LegendNANA
10:00 1.6 -6.1 57 7 15 24.1 101.21     Cloudy
11:00 2.0 -5.7 57 5 16 24.1 101.14     LegendNANA
12:00 2.7 -5.3 56 5 10 24.1 101.15     LegendNANA
13:00 3.1 -4.1 59 7 12 24.1 101.04     Cloudy
14:00 3.6 -3.9 58 4 13 24.1 101.01     LegendNANA
15:00 3.6 -2.9 62 4 16 24.1 100.99     LegendNANA
16:00 3.8 -2.5 64 6 14 24.1 100.92     Cloudy
17:00 3.7 -1.3 70 6 10 24.1 100.86     LegendNANA
18:00 3.4 -1.2 72 6 10 24.1 100.82     LegendNANA
19:00 3.2 -1.0 74 6 11 24.1 100.77     Cloudy
20:00 3.0 -1.2 74 7 16 24.1 100.64     LegendNANA
21:00 2.8 -1.3 74 7 16 24.1 100.50     LegendNANA
22:00 2.7 -1.2 76 9 16 24.1 100.38     Cloudy
23:00 2.5 -0.8 79 9 17 24.1 100.25     LegendNANA

Notes on Data Quality.

Legend

  • E = Estimated
  • M = Missing
  • NA = Not Available*
  • [empty] = Indicates an unobserved value
Date modified: